Tiempo cada hora Fuenlabrada

Hoy, 20 Octubre, Martes

Tiempo Temperatura Precipitaciones Viento Presión Humedad
00:00 +19°C° 0 mm 5 mps 701 mmHg 37%
01:00 +18°C° 0.2 mm 4 mps 701 mmHg 43%
02:00 +18°C° 0.2 mm 4 mps 700 mmHg 48%
03:00 +17°C° 0.2 mm 4 mps 700 mmHg 53%
04:00 +16°C° 2 mm 3 mps 700 mmHg 62%
05:00 +14°C° 2 mm 3 mps 700 mmHg 70%
06:00 +15°C° 0 mm 2 mps 700 mmHg 73%
07:00 +14°C° 1.6 mm 3 mps 699 mmHg 74%
08:00 +14°C° 1.6 mm 4 mps 699 mmHg 76%
09:00 +13°C° 1.6 mm 4 mps 699 mmHg 77%
10:00 +15°C° 1.7 mm 4 mps 699 mmHg 70%
11:00 +16°C° 1.7 mm 5 mps 698 mmHg 63%
12:00 +19°C° 1.7 mm 5 mps 698 mmHg 56%
13:00 +20°C° 0 mm 5 mps 697 mmHg 51%
14:00 +21°C° 0 mm 6 mps 696 mmHg 45%
15:00 +22°C° 0 mm 6 mps 695 mmHg 40%
16:00 +22°C° 0 mm 7 mps 695 mmHg 42%
17:00 +21°C° 0 mm 8 mps 695 mmHg 43%
18:00 +21°C° 0 mm 8 mps 695 mmHg 45%
19:00 +20°C° 0.2 mm 7 mps 695 mmHg 47%
20:00 +20°C° 0.2 mm 7 mps 695 mmHg 49%
21:00 +19°C° 0.2 mm 6 mps 695 mmHg 51%
22:00 +17°C° 1 mm 6 mps 696 mmHg 61%
23:00 +16°C° 1 mm 7 mps 696 mmHg 71%

Mañana, 21 Octubre, Miércoles

Tiempo Temperatura Precipitaciones Viento Presión Humedad
00:00 +15°C° 1 mm 7 mps 696 mmHg 81%
01:00 +15°C° 0.2 mm 6 mps 697 mmHg 81%
02:00 +14°C° 0.2 mm 5 mps 697 mmHg 81%
03:00 +14°C° 0.2 mm 4 mps 697 mmHg 81%
04:00 +13°C° 0.1 mm 4 mps 697 mmHg 82%
05:00 +13°C° 0.1 mm 4 mps 697 mmHg 83%
06:00 +13°C° 0.1 mm 4 mps 698 mmHg 84%
07:00 +14°C° 0.1 mm 6 mps 698 mmHg 79%
08:00 +15°C° 0.1 mm 7 mps 699 mmHg 74%
09:00 +16°C° 0.1 mm 8 mps 699 mmHg 69%
10:00 +17°C° 0.2 mm 8 mps 699 mmHg 64%
11:00 +18°C° 0.2 mm 9 mps 699 mmHg 58%
12:00 +19°C° 0.2 mm 9 mps 700 mmHg 52%
13:00 +19°C° 0.2 mm 9 mps 699 mmHg 53%
14:00 +20°C° 0.2 mm 8 mps 699 mmHg 53%
15:00 +20°C° 0.2 mm 8 mps 699 mmHg 53%
16:00 +18°C° 0.1 mm 7 mps 700 mmHg 57%
17:00 +17°C° 0.1 mm 6 mps 700 mmHg 60%
18:00 +16°C° 0.1 mm 5 mps 700 mmHg 64%
19:00 +17°C° 0.1 mm 4 mps 700 mmHg 66%
20:00 +17°C° 0.1 mm 4 mps 701 mmHg 69%
21:00 +16°C° 0.1 mm 3 mps 701 mmHg 71%
22:00 +16°C° 0.1 mm 3 mps 701 mmHg 72%
23:00 +16°C° 0.1 mm 3 mps 701 mmHg 73%

Pasado mañana, 22 Octubre, Jueves

Tiempo Temperatura Precipitaciones Viento Presión Humedad
00:00 +16°C° 0.1 mm 3 mps 701 mmHg 74%
01:00 +14°C° 0.3 mm 3 mps 701 mmHg 74%
02:00 +14°C° 0.3 mm 3 mps 701 mmHg 75%
03:00 +14°C° 0.3 mm 3 mps 701 mmHg 75%
04:00 +14°C° 0.1 mm 3 mps 701 mmHg 77%
05:00 +14°C° 0.1 mm 2 mps 701 mmHg 78%
06:00 +14°C° 0.1 mm 2 mps 701 mmHg 80%
07:00 +14°C° 0.1 mm 2 mps 701 mmHg 78%
08:00 +15°C° 0.1 mm 2 mps 702 mmHg 75%
09:00 +15°C° 0.1 mm 2 mps 702 mmHg 73%
10:00 +16°C° 0.2 mm 2 mps 702 mmHg 71%
11:00 +16°C° 0.2 mm 2 mps 702 mmHg 69%
12:00 +17°C° 0.2 mm 2 mps 702 mmHg 67%
13:00 +17°C° 0.2 mm 3 mps 702 mmHg 68%
14:00 +17°C° 0.2 mm 3 mps 702 mmHg 69%
15:00 +16°C° 0.2 mm 3 mps 702 mmHg 70%
16:00 +16°C° 0.5 mm 3 mps 702 mmHg 72%
17:00 +16°C° 0.5 mm 3 mps 702 mmHg 73%
18:00 +14°C° 0.5 mm 3 mps 702 mmHg 75%
19:00 +14°C° 0.4 mm 3 mps 703 mmHg 78%
20:00 +13°C° 0.4 mm 3 mps 703 mmHg 82%
21:00 +13°C° 0.4 mm 3 mps 703 mmHg 85%
22:00 +13°C° 0.1 mm 3 mps 703 mmHg 86%
23:00 +12°C° 0.1 mm 3 mps 704 mmHg 88%

23 Octubre, Viernes

Tiempo Temperatura Precipitaciones Viento Presión Humedad
00:00 +13°C° 0.1 mm 2 mps 704 mmHg 89%
01:00 +13°C° 0.1 mm 2 mps 704 mmHg 89%
02:00 +12°C° 0.1 mm 2 mps 704 mmHg 88%
03:00 +11°C° 0.1 mm 3 mps 704 mmHg 88%
04:00 +11°C° 0 mm 3 mps 704 mmHg 88%
05:00 +11°C° 0 mm 3 mps 705 mmHg 87%
06:00 +10°C° 0 mm 3 mps 705 mmHg 86%
07:00 +11°C° 0 mm 3 mps 706 mmHg 81%
08:00 +12°C° 0 mm 4 mps 706 mmHg 76%
09:00 +13°C° 0 mm 4 mps 707 mmHg 71%
10:00 +14°C° 0 mm 5 mps 707 mmHg 65%
11:00 +15°C° 0 mm 5 mps 707 mmHg 60%
12:00 +16°C° 0 mm 5 mps 707 mmHg 54%
13:00 +16°C° 0 mm 5 mps 707 mmHg 52%
14:00 +16°C° 0 mm 5 mps 707 mmHg 50%
15:00 +16°C° 0 mm 5 mps 707 mmHg 49%
16:00 +17°C° 0 mm 4 mps 707 mmHg 54%
17:00 +15°C° 0 mm 4 mps 707 mmHg 59%
18:00 +14°C° 0 mm 3 mps 707 mmHg 64%
19:00 +13°C° 0 mm 3 mps 708 mmHg 66%
20:00 +14°C° 0 mm 2 mps 708 mmHg 69%
21:00 +13°C° 0 mm 2 mps 708 mmHg 72%
22:00 +13°C° 0 mm 2 mps 708 mmHg 73%
23:00 +12°C° 0 mm 2 mps 708 mmHg 74%

24 Octubre, Sábado

Tiempo Temperatura Precipitaciones Viento Presión Humedad
00:00 +12°C° 0 mm 1 mps 708 mmHg 76%
01:00 +12°C° 0 mm 1 mps 708 mmHg 77%
02:00 +11°C° 0 mm 1 mps 708 mmHg 79%
03:00 +11°C° 0 mm 1 mps 708 mmHg 80%
04:00 +11°C° 0 mm 1 mps 708 mmHg 81%
05:00 +10°C° 0 mm 1 mps 708 mmHg 82%
06:00 +9°C° 0 mm 0 mps 708 mmHg 83%
07:00 +11°C° 0 mm 1 mps 708 mmHg 78%
08:00 +12°C° 0 mm 1 mps 708 mmHg 73%
09:00 +13°C° 0 mm 1 mps 708 mmHg 68%
10:00 +14°C° 0 mm 1 mps 708 mmHg 63%
11:00 +16°C° 0 mm 2 mps 708 mmHg 59%
12:00 +17°C° 0 mm 3 mps 708 mmHg 54%
13:00 +17°C° 0 mm 3 mps 708 mmHg 52%
14:00 +18°C° 0 mm 3 mps 707 mmHg 50%
15:00 +18°C° 0 mm 4 mps 707 mmHg 48%
16:00 +17°C° 0 mm 4 mps 707 mmHg 52%
17:00 +16°C° 0 mm 3 mps 707 mmHg 56%
18:00 +14°C° 0 mm 3 mps 706 mmHg 60%
19:00 +13°C° 0 mm 3 mps 707 mmHg 63%
20:00 +13°C° 0 mm 3 mps 707 mmHg 65%
21:00 +12°C° 0 mm 3 mps 707 mmHg 68%
22:00 +12°C° 0 mm 3 mps 707 mmHg 70%
23:00 +12°C° 0 mm 3 mps 706 mmHg 72%

25 Octubre, Domingo

Tiempo Temperatura Precipitaciones Viento Presión Humedad
00:00 +11°C° 0 mm 3 mps 706 mmHg 74%
01:00 +11°C° 0 mm 3 mps 706 mmHg 76%
02:00 +10°C° 0 mm 3 mps 706 mmHg 78%
03:00 +10°C° 0 mm 3 mps 705 mmHg 80%
04:00 +9°C° 0 mm 3 mps 705 mmHg 83%
05:00 +9°C° 0 mm 3 mps 705 mmHg 86%
06:00 +8°C° 0 mm 3 mps 705 mmHg 89%
07:00 +8°C° 0 mm 4 mps 705 mmHg 86%
08:00 +9°C° 0 mm 5 mps 705 mmHg 83%
09:00 +9°C° 0 mm 6 mps 704 mmHg 80%
10:00 +10°C° 0 mm 6 mps 704 mmHg 74%
11:00 +11°C° 0 mm 7 mps 704 mmHg 69%
12:00 +12°C° 0 mm 8 mps 704 mmHg 64%
13:00 +12°C° 0 mm 8 mps 704 mmHg 64%
14:00 +13°C° 0 mm 9 mps 704 mmHg 65%
15:00 +13°C° 0 mm 9 mps 703 mmHg 65%
16:00 +12°C° 0.1 mm 8 mps 704 mmHg 65%
17:00 +12°C° 0.1 mm 7 mps 704 mmHg 64%
18:00 +12°C° 0.1 mm 5 mps 704 mmHg 64%
19:00 +12°C° 0.1 mm 5 mps 705 mmHg 62%
20:00 +10°C° 0.1 mm 5 mps 705 mmHg 61%
21:00 +10°C° 0.1 mm 5 mps 706 mmHg 59%
22:00 +9°C° 0 mm 5 mps 706 mmHg 60%
23:00 +8°C° 0 mm 6 mps 707 mmHg 61%

26 Octubre, Lunes

Tiempo Temperatura Precipitaciones Viento Presión Humedad
00:00 +7°C° 0 mm 6 mps 707 mmHg 63%
01:00 +7°C° 0 mm 5 mps 707 mmHg 64%
02:00 +7°C° 0 mm 5 mps 707 mmHg 65%
03:00 +6°C° 0 mm 5 mps 708 mmHg 66%
04:00 +6°C° 0 mm 4 mps 708 mmHg 66%
05:00 +6°C° 0 mm 4 mps 708 mmHg 66%
06:00 +6°C° 0 mm 4 mps 709 mmHg 67%
07:00 +6°C° 0 mm 4 mps 709 mmHg 63%
08:00 +7°C° 0 mm 4 mps 709 mmHg 59%
09:00 +8°C° 0 mm 5 mps 710 mmHg 56%
10:00 +10°C° 0 mm 4 mps 710 mmHg 51%
11:00 +12°C° 0 mm 4 mps 710 mmHg 46%
12:00 +13°C° 0 mm 4 mps 709 mmHg 41%
13:00 +13°C° 0 mm 4 mps 709 mmHg 40%
14:00 +13°C° 0 mm 4 mps 709 mmHg 39%
15:00 +14°C° 0 mm 3 mps 709 mmHg 39%
16:00 +13°C° 0 mm 3 mps 709 mmHg 42%
17:00 +12°C° 0 mm 3 mps 709 mmHg 46%
18:00 +12°C° 0 mm 2 mps 709 mmHg 49%
19:00 +12°C° 0 mm 2 mps 710 mmHg 51%
20:00 +10°C° 0 mm 3 mps 710 mmHg 53%
21:00 +10°C° 0 mm 3 mps 710 mmHg 55%
22:00 +10°C° 0 mm 2 mps 710 mmHg 57%
23:00 +9°C° 0 mm 2 mps 710 mmHg 59%
Mostrar más

Necesitamos Su Consentimiento

Meteoprog y nuestros Proveedores de Servicios pueden almacenar y acceder a sus datos personales como cookies, identificadores de dispositivo u otras tecnologías similares de su dispositivo y procesar dichos datos para personalizar contenido y anuncios, además de ofrecer funciones de redes sociales y analizar el tráfico.

  • Almacenar y/o acceder a información en su dispositivo

    Se puede almacenar o acceder a cookies, identificadores de dispositivo u otra información de su dispositivo para los fines anteriormente indicados.

  • Anuncios y contenido personalizados, medición de anuncios y contenido, percepciones del público, y desarrollo de productos

    Los anuncios y el contenido pueden personalizarse en base a su perfil. Se pueden añadir más datos para personalizar mejor los anuncios y contenidos. Se puede medir el rendimiento de los anuncios y contenidos. Se puede obtener la percepción sobre el público que ha visto los anuncios y contenidos. Dichos datos pueden usarse para desarrollar o mejorar la experiencia del usuario, sistemas y software.

Al hacer clic en ‘Estoy De Acuerdo’ usted permitirá el uso de las cookies, identificadores de dispositivo, balizas web u otras tecnologías similares indicadas. Su configuración puede cambiarse desde el navegador de su dispositivo.

Para ciertos fines, los intereses legítimos pueden ser considerados por encima del consentimiento. Puede leer más sobre ello en nuestra Política de Privacidad y Cookies.